TimeAKST,TemperatureF,Dew PointF,Humidity,Sea Level PressureIn,VisibilityMPH,Wind Direction,Wind SpeedMPH,Gust SpeedMPH,PrecipitationIn,Events,Conditions,WindDirDegrees,DateUTC
12:01 AM,-11.9,-17.0,78,30.70,10.0,East,20.7,-,N/A,,Clear,90,2013-01-22 09:01:00
1:01 AM,-13.0,-18.0,78,30.71,10.0,East,21.9,-,N/A,,Clear,80,2013-01-22 10:01:00
2:01 AM,-13.0,-18.9,75,30.71,10.0,East,21.9,-,N/A,,Clear,80,2013-01-22 11:01:00
3:01 AM,-14.1,-20.0,75,30.71,10.0,East,20.7,-,N/A,,Clear,80,2013-01-22 12:01:00
4:01 AM,-15.0,-20.0,78,30.71,10.0,East,21.9,-,N/A,,Clear,80,2013-01-22 13:01:00
5:01 AM,-16.1,-20.9,79,30.71,10.0,East,20.7,-,N/A,,Clear,80,2013-01-22 14:01:00
6:01 AM,-16.1,-22.0,74,30.71,10.0,East,20.7,-,N/A,,Clear,80,2013-01-22 15:01:00
7:01 AM,-16.1,-20.9,79,30.71,10.0,East,20.7,-,N/A,,Clear,80,2013-01-22 16:01:00
8:01 AM,-16.1,-22.0,74,30.71,10.0,East,19.6,-,N/A,,Clear,80,2013-01-22 17:01:00
9:01 AM,-17.0,-22.0,78,30.71,10.0,East,21.9,-,N/A,,Clear,80,2013-01-22 18:01:00
10:01 AM,-17.0,-22.0,78,30.71,10.0,East,21.9,-,N/A,,Clear,80,2013-01-22 19:01:00
11:01 AM,-18.0,-23.1,78,30.71,10.0,East,18.4,-,N/A,,Clear,90,2013-01-22 20:01:00
12:01 PM,-18.0,-23.1,78,30.71,10.0,East,20.7,-,N/A,,Clear,80,2013-01-22 21:01:00
1:01 PM,-18.9,-24.0,78,30.71,10.0,East,19.6,-,N/A,,Clear,90,2013-01-22 22:01:00
2:01 PM,-18.9,-24.0,78,30.70,10.0,East,18.4,-,N/A,,Clear,90,2013-01-22 23:01:00
3:01 PM,-18.9,-24.0,78,30.69,10.0,East,18.4,-,N/A,,Clear,80,2013-01-23 00:01:00
4:01 PM,-18.9,-24.0,78,30.68,10.0,East,20.7,-,N/A,,Clear,80,2013-01-23 01:01:00
5:01 PM,-18.9,-24.0,78,30.68,10.0,East,19.6,-,N/A,,Clear,80,2013-01-23 02:01:00
6:01 PM,-18.9,-24.0,78,30.67,9.0,East,17.3,-,N/A,,Clear,90,2013-01-23 03:01:00
7:01 PM,-18.9,-24.0,78,30.67,10.0,East,15.0,-,N/A,,Clear,90,2013-01-23 04:01:00
8:01 PM,-20.0,-25.1,78,30.66,10.0,East,12.7,-,N/A,,Clear,80,2013-01-23 05:01:00
9:01 PM,-18.9,-24.0,78,30.66,10.0,East,12.7,-,N/A,,Clear,90,2013-01-23 06:01:00
10:01 PM,-18.9,-24.0,78,30.65,10.0,ENE,11.5,-,N/A,,Clear,70,2013-01-23 07:01:00
11:01 PM,-18.9,-24.0,78,30.64,10.0,ENE,12.7,-,N/A,,Clear,70,2013-01-23 08:01:00